Eagle River, WI

7:15 PM CDT on September 20, 2017 (GMT -0500)
Eagle River Union

Weather History for KEGV - March, 2014

Change the Weather History Date:

Thursday, March 20, 2014

  Actual Average Record
Temperature  
Mean Temperature 23 °F -  
Max Temperature 32 °F 38 °F 73 °F (2012)
Min Temperature 14 °F 19 °F 3 °F (2013)
Degree Days  
Heating Degree Days 42    
Moisture  
Dew Point 20 °F    
Average Humidity 79    
Maximum Humidity 98    
Minimum Humidity 53    
Precipitation  
Precipitation 0.00 in - - ()
Sea Level Pressure  
Sea Level Pressure 29.90 in    
Wind  
Wind Speed 5 mph (WNW)    
Max Wind Speed 9 mph    
Max Gust Speed -    
Visibility 8 miles    
Events Snow    
Averages and records for this station are not official NWS values.
T = Trace of Precipitation, MM = Missing Value Source: NWS Daily Summary

Daily Weather History Graph

Daily Weather History Graph

Search for Another Location

Airport or City:

Trip Planner

Search our weather history database for the weather conditions in past years. The results will help you decide how hot, cold, wet, or windy it might be!

Date:

Astronomy

Mar. 20, 2014 Rise Set
Actual Time 7:00 AM CDT 7:09 PM CDT
Civil Twilight 6:30 AM CDT 7:39 PM CDT
Nautical Twilight 5:55 AM CDT 8:14 PM CDT
Astronomical Twilight 5:19 AM CDT 8:50 PM CDT
Moon 11:43 PM CDT (3/20) 8:53 AM CDT (3/20)
Length of Visible Light 13h 09m
Length of Day
12h 09m
Waning Gibbous, 84% of the Moon is Illuminated
Mar 20
Waning Gibbous
Mar 23
Last Quarter
Mar 30
New
Apr 7
First Quarter
Apr 15
Full

Hourly Weather History & Observations

Time (CDT) Temp. Windchill Dew Point Humidity Pressure Visibility Wind Dir Wind Speed Gust Speed Precip Events Conditions
12:15 AM 24.8 °F 16.9 °F 21.9 °F 89% 29.82 in 7.0 mi NW 6.9 mph - N/A Snow Light Snow
12:35 AM 24.8 °F 17.9 °F 23.2 °F 94% 29.82 in 7.0 mi WNW 5.8 mph - N/A Snow Light Snow
12:55 AM 24.6 °F 18.8 °F 23.9 °F 97% 29.82 in 7.0 mi WNW 4.6 mph - N/A Snow Light Snow
1:15 AM 24.6 °F 17.7 °F 23.9 °F 97% 29.82 in 5.0 mi WNW 5.8 mph - N/A Snow Light Snow
1:35 AM 24.8 °F 17.9 °F 23.9 °F 96% 29.83 in 5.0 mi WNW 5.8 mph - N/A Snow Light Snow
1:55 AM 25.0 °F 18.1 °F 23.7 °F 95% 29.83 in 4.0 mi WNW 5.8 mph - N/A Snow Light Snow
2:15 AM 24.8 °F 19.1 °F 23.2 °F 94% 29.83 in 7.0 mi WNW 4.6 mph - N/A Snow Light Snow
2:35 AM 24.8 °F 16.9 °F 22.6 °F 91% 29.83 in 10.0 mi WNW 6.9 mph - N/A Snow Light Snow
2:55 AM 24.8 °F 19.1 °F 21.4 °F 87% 29.83 in 10.0 mi WNW 4.6 mph - N/A Snow Light Snow
3:15 AM 24.6 °F 17.7 °F 21.2 °F 87% 29.83 in 10.0 mi West 5.8 mph - N/A   Overcast
3:35 AM 24.8 °F 16.9 °F 21.0 °F 86% 29.84 in 7.0 mi West 6.9 mph - N/A Snow Light Snow
3:55 AM 24.8 °F 16.9 °F 20.8 °F 85% 29.84 in 10.0 mi West 6.9 mph - N/A Snow Light Snow
4:15 AM 24.8 °F 16.1 °F 20.5 °F 84% 29.84 in 10.0 mi WNW 8.1 mph - N/A   Overcast
4:35 AM 24.8 °F 17.9 °F 20.3 °F 83% 29.85 in 10.0 mi WNW 5.8 mph - N/A Snow Light Snow
4:55 AM 25.0 °F 18.1 °F 20.8 °F 84% 29.85 in 10.0 mi WNW 5.8 mph - N/A Snow Light Snow
5:15 AM 25.0 °F 17.1 °F 21.2 °F 86% 29.86 in 7.0 mi West 6.9 mph - N/A Snow Light Snow
5:35 AM 25.0 °F 18.1 °F 21.2 °F 86% 29.87 in 7.0 mi WNW 5.8 mph - N/A Snow Light Snow
5:55 AM 25.2 °F 20.9 °F 21.7 °F 87% 29.87 in 7.0 mi West 3.5 mph - N/A Snow Light Snow
6:15 AM 25.2 °F 18.3 °F 21.7 °F 87% 29.87 in 10.0 mi WNW 5.8 mph - N/A Snow Light Snow
6:35 AM 25.3 °F 19.7 °F 21.6 °F 86% 29.88 in 10.0 mi West 4.6 mph - N/A Snow Light Snow
6:55 AM 25.3 °F 16.7 °F 21.6 °F 86% 29.88 in 10.0 mi WNW 8.1 mph - N/A Snow Light Snow
7:15 AM 25.5 °F 19.9 °F 21.6 °F 85% 29.88 in 10.0 mi WNW 4.6 mph - N/A Snow Light Snow
7:35 AM 25.5 °F 21.3 °F 21.6 °F 85% 29.89 in 10.0 mi WNW 3.5 mph - N/A Snow Light Snow
7:55 AM 25.5 °F 18.7 °F 21.7 °F 86% 29.90 in 5.0 mi WNW 5.8 mph - N/A Snow Light Snow
8:15 AM 25.7 °F 19.0 °F 21.9 °F 86% 29.90 in 5.0 mi WNW 5.8 mph - N/A Snow Light Snow
8:35 AM 26.1 °F 19.4 °F 22.1 °F 85% 29.91 in 3.0 mi WNW 5.8 mph - N/A Snow Light Snow
8:55 AM 26.1 °F 19.4 °F 22.1 °F 85% 29.91 in 2.5 mi WNW 5.8 mph - N/A Snow Light Snow
9:15 AM 26.2 °F 20.7 °F 22.1 °F 84% 29.91 in 3.0 mi NW 4.6 mph - N/A Snow Light Snow
9:35 AM 26.4 °F 19.8 °F 22.1 °F 84% 29.92 in 2.5 mi NW 5.8 mph - N/A Snow Light Snow
9:55 AM 26.6 °F 19.1 °F 21.9 °F 82% 29.93 in 3.0 mi NW 6.9 mph - N/A Snow Light Snow
10:15 AM 27.1 °F 18.9 °F 21.7 °F 80% 29.93 in 5.0 mi NW 8.1 mph - N/A Snow Light Snow
10:35 AM 27.5 °F 21.1 °F 21.2 °F 77% 29.93 in 3.0 mi NNW 5.8 mph - N/A Snow Light Snow
10:55 AM 27.3 °F 22.0 °F 20.8 °F 77% 29.93 in 4.0 mi NW 4.6 mph - N/A Snow Light Snow
11:15 AM 27.9 °F 22.6 °F 20.5 °F 74% 29.93 in 7.0 mi NNW 4.6 mph - N/A Snow Light Snow
11:35 AM 28.0 °F 21.7 °F 19.9 °F 72% 29.93 in 10.0 mi NNW 5.8 mph - N/A   Overcast
11:55 AM 28.4 °F 21.2 °F 19.0 °F 68% 29.94 in 10.0 mi NNW 6.9 mph - N/A   Overcast
12:15 PM 28.2 °F 21.0 °F 19.0 °F 68% 29.94 in 10.0 mi NNW 6.9 mph - N/A Snow Light Snow
12:35 PM 28.4 °F 21.2 °F 19.0 °F 68% 29.93 in 10.0 mi NW 6.9 mph - N/A   Overcast
12:55 PM 29.1 °F 23.0 °F 18.3 °F 64% 29.93 in 10.0 mi WNW 5.8 mph - N/A   Overcast
1:15 PM 29.5 °F 22.5 °F 17.8 °F 62% 29.93 in 10.0 mi NW 6.9 mph - N/A   Overcast
1:35 PM 29.3 °F 24.3 °F 18.3 °F 64% 29.93 in 10.0 mi WNW 4.6 mph - N/A   Overcast
1:55 PM 29.7 °F 22.0 °F 18.0 °F 62% 29.92 in 10.0 mi WSW 8.1 mph - N/A   Overcast
2:15 PM 29.7 °F 22.0 °F 18.9 °F 64% 29.92 in 10.0 mi West 8.1 mph - N/A   Overcast
2:35 PM 29.8 °F 23.0 °F 18.9 °F 64% 29.92 in 10.0 mi NW 6.9 mph - N/A   Overcast
2:55 PM 30.0 °F 23.2 °F 18.7 °F 63% 29.92 in 10.0 mi NW 6.9 mph - N/A   Overcast
3:15 PM 30.2 °F 23.4 °F 18.5 °F 62% 29.92 in 10.0 mi West 6.9 mph - N/A   Overcast
3:35 PM 30.4 °F 24.5 °F 18.0 °F 60% 29.92 in 10.0 mi WSW 5.8 mph - N/A   Overcast
3:55 PM 30.7 °F 22.6 °F 17.4 °F 58% 29.92 in 10.0 mi West 9.2 mph - N/A   Overcast
4:15 PM 32.0 °F 27.5 °F 17.2 °F 55% 29.91 in 10.0 mi WNW 4.6 mph - N/A   Overcast
4:35 PM 31.8 °F 28.5 °F 16.9 °F 54% 29.92 in 10.0 mi NW 3.5 mph - N/A   Scattered Clouds
4:55 PM 32.0 °F 26.4 °F 16.9 °F 54% 29.91 in 10.0 mi NNW 5.8 mph - N/A   Scattered Clouds
5:15 PM 32.0 °F 26.4 °F 17.4 °F 55% 29.91 in 10.0 mi North 5.8 mph - N/A   Clear
5:35 PM 32.2 °F - 16.7 °F 53% 29.91 in 10.0 mi Calm Calm - N/A   Clear
5:55 PM 32.0 °F - 16.9 °F 54% 29.91 in 10.0 mi Calm Calm - N/A   Clear
6:15 PM 31.5 °F - 16.7 °F 54% 29.91 in 10.0 mi Calm Calm - N/A   Clear
6:35 PM 31.5 °F - 16.7 °F 54% 29.91 in 10.0 mi Calm Calm - N/A   Clear
6:55 PM 27.7 °F - 17.6 °F 66% 29.92 in 10.0 mi Calm Calm - N/A   Clear
7:15 PM 25.7 °F - 19.6 °F 78% 29.91 in 10.0 mi Calm Calm - N/A   Clear
7:35 PM 24.8 °F - 19.6 °F 81% 29.92 in 10.0 mi Calm Calm - N/A   Clear
7:55 PM 22.8 °F - 18.3 °F 83% 29.92 in 10.0 mi Calm Calm - N/A   Clear
8:15 PM 21.4 °F - 18.3 °F 88% 29.92 in 10.0 mi Calm Calm - N/A   Clear
8:35 PM 20.5 °F - 17.4 °F 88% 29.92 in 10.0 mi Calm Calm - N/A   Clear
8:55 PM 18.3 °F - 17.2 °F 96% 29.93 in 10.0 mi Calm Calm - N/A   Clear
9:15 PM 20.1 °F - 19.4 °F 97% 29.93 in 10.0 mi Calm Calm - N/A   Clear
9:35 PM 18.1 °F - 17.6 °F 98% 29.93 in 7.0 mi Calm Calm - N/A   Clear
9:55 PM 16.9 °F - 15.8 °F 96% 29.94 in 5.0 mi Calm Calm - N/A   Clear
10:15 PM 16.7 °F - 15.8 °F 96% 29.94 in 10.0 mi Calm Calm - N/A   Clear
10:35 PM 16.3 °F - 15.6 °F 97% 29.94 in 10.0 mi Calm Calm - N/A   Clear
10:55 PM 15.6 °F - 14.7 °F 96% 29.94 in 7.0 mi Calm Calm - N/A   Clear
11:15 PM 15.3 °F - 14.2 °F 95% 29.94 in 10.0 mi Calm Calm - N/A   Clear
11:35 PM 14.5 °F - 13.6 °F 96% 29.94 in 10.0 mi Calm Calm - N/A   Clear
11:55 PM 14.2 °F - 13.1 °F 95% 29.94 in 10.0 mi Calm Calm - N/A   Clear